OBJECT B, 63983

Orbit data source: Space-Track

You're viewing an Uncataloged Satellite

Recently launched and/or uncataloged satellites may have evolving metadata. Metadata may include but not limited to: Owner, Maufacturer, Bus, Motor, and Mission.

OBJECT B, 63983 is a Chinese satellite in SSO that was launched on Wed, 14 May 2025 UTC via a CHANG ZHENG 2D launch vehicle from the Jiuquan Satellite Launch Center, China (JSC). Unknown objects in Earth's orbit typically refer to objects detected orbiting the Earth but have not yet been identified or cataloged. These objects could be anything from previously untracked satellites, spent rocket stages, debris from satellite collisions, or even natural meteoroids temporarily captured by Earth's gravity.

Loading next visibility...
Identifier
63983, 2025-100B
Orbit
SSO
Country
Flag of CNCN / PRC
Related business
None
Manufacturer
Unknown
Mission
Operational Commercial Technology
Bus & Motor
Unknown
Mass
Unknown
Launch date (UTC)
2025-05-14 (1 year ago)
Launch vehicle
CHANG ZHENG 2D
Launch site
Jiuquan Satellite Launch Center, China (JSC)
Object type
Unknown
Shape & HBR
Box + 2 Pan, 0.9 m
Radar Cross Section
0.195 m², Large (>1 m²)

Expand to show TLE details & history
Last TLE update: 14 hours ago

TLE from 14 hours ago
0 OBJECT B
1 63983U 25100B   26202.63463610  .00029638  00000-0  72989-3 0  9994
2 63983  97.3613 279.8925 0010256 164.2528 195.9039 15.40490367 66214
Epoch: 2026-07-21T15:13Z
TLE epoch observation values (Epoch: 2026-07-21T15:13:52.559Z)
Latitude
-0.00002°
Longitude
112.022°
Altitude
454.512 km
Speed
7.636 km/s
True Right ascension
18h 39m 34s
True Declination
0° 00' 00"
Sunlit
Object was in full shadow at epoch
Visualization orbit readout
Latitude
Unknown
Longitude
Unknown
Altitude
Unknown
Speed
Unknown
Apparent Right ascension
Unknown
Apparent Declination
Unknown
Sunlit
N/A
Visualization observer readout
Local Sidereal Time
18:13:09
Azimuth
Unknown
Elevation
Unknown
Doppler factor
Unknown
Orbital elements
Apogee altitude
448.592 km
Perigee altitude
434.603 km
Semi-major axis
6,819.735 km
Eccentricity
0.00103
Inclination
97.3613°
RAAN
279.8925°
Arg. of periapsis
164.2528°
True anomaly
195.87173°
Mean anomaly
195.9039°
Eccentric anomaly
195.88781°
Mean motion
3.85382 °/min
Orbital period
93.41 mins
BSTAR
0.00072989
Loading maneuver chart data...
Computing Atmospheric mass density...
Loading historical data...
Loading historical data...
Loading historical data...
Loading historical data...
Loading historical data...
Loading historical data...
Loading historical data...

Documentation

Showing up to 5 results
|